Simultaneous Nadir Overpasses (SNOs) Predictions

Prediction of SNOs between GOES-15 and METOP-A Satellite Orbit:

Table of predicted SNOs for the next 14.0 days since TLE Epoch: 9/11/2020
Index Date Time (GOES-15) GOES-15 Lat,Lon METOP-A Lat,Lon Distance(km) Time Diff (sec)
1 09/12/2020 05:08:07 -0.01,-128.14 -0.04,-128.37 26.45 80
2 09/14/2020 17:03:40 0.01,-128.16 -0.02,-127.99 19.63 80
3 09/17/2020 05:02:03 -0.01,-128.24 0.15,-127.65 67.92 80
4 09/18/2020 17:23:34 0.02,-128.24 0.93,-132.24 456.43 80
5 09/19/2020 17:00:16 0.01,-128.25 -0.21,-127.27 112.40 80
6 09/21/2020 05:21:57 -0.02,-128.31 -0.80,-131.91 408.67 80
7 09/22/2020 04:58:37 -0.02,-128.32 0.29,-126.92 159.55 80
8 09/23/2020 17:20:10 0.03,-128.31 0.74,-131.52 366.00 80
9 09/24/2020 16:56:50 0.02,-128.32 -0.35,-126.54 202.13 80
